Zurück zum Katalog

FENGYUN 1C DEB

LostPO
NORAD 37588·DEBRIS·🇨🇳 China

Gestartet May 10, 1999 von Taiyuan Satellite Launch Center

Loading…

Nächste Überflüge (nächste 24 Stunden)

TLE

VeraltetSource: Space-Track

Epoche: Aug 10, 2026, 21:05 UTC

1 37588U 99025EKG 26222.87908627  .00001130  00000-0  58538-3 0  9994
2 37588  98.1322 253.7541 0084818  77.7179  95.7965 14.14743791616614

Verfolge FENGYUN 1C DEB in Echtzeit mit AllMySat

Download on the App Store